Hourly Data Report for September 24, 2017

All times are specified in Local Standard Time (LST). Add 1 hour to adjust for Daylight Saving Time where and when it is observed.

POINT LEPREAU CS
NEW BRUNSWICK

45°04'23.040" N
66°26'57.090" W
6.00 m
8104201
71699
WPE

Download Data

Hourly Data (September 2017)
Hourly Data Report for September 24, 2017
Temp Definition
°C
Dew Point Temp Definition
°C
Rel Hum Definition
%
Wind Dir Definition
10's deg

Wind Spd Definition
km/h
Visibility Definition
km
Stn Press Definition
kPa
Hmdx Definition


Wind Chill Definition


Weather Definition


TIME
00:00 14.4 14.1 98 25 5   101.48     LegendNANA
01:00 13.7 13.4 98 35 6   101.48     LegendNANA
02:00 13.8 LegendMM 100 5 8   101.51     LegendNANA
03:00 15.6 14.7 95 5 9   101.52     LegendNANA
04:00 15.0 13.9 93 7 8   101.56     LegendNANA
05:00 14.9 13.6 92 8 7   101.57     LegendNANA
06:00 13.9 12.9 94 6 5   101.62     LegendNANA
07:00 15.0 13.3 90 8 6   101.67     LegendNANA
08:00 14.2 13.8 98 10 10   101.69     LegendNANA
09:00 15.8 14.6 92 11 6   101.65     LegendNANA
10:00 16.8 15.1 90 12 4   101.63     LegendNANA
11:00 16.2 14.6 90 14 7   101.59     LegendNANA
12:00 16.9 15.0 89 12 5   101.55     LegendNANA
13:00 17.2 15.5 90 15 5   101.49     LegendNANA
14:00 17.6 15.1 85 17 5   101.51     LegendNANA
15:00 17.3 15.4 89 15 6   101.44     LegendNANA
16:00 17.8 15.1 84 15 2   101.42     LegendNANA
17:00 19.1 15.0 77 20 4   101.42     LegendNANA
18:00 17.9 14.5 80 27 5   101.45     LegendNANA
19:00 16.7 14.6 88 27 6   101.48     LegendNANA
20:00 14.8 13.7 93 14 2   101.54     LegendNANA
21:00 14.8 13.9 94 12 2   101.52     LegendNANA
22:00 14.9 14.0 94   0   101.53     LegendNANA
23:00 14.4 13.7 96   0   101.52     LegendNANA

Notes on Data Quality.

Legend

  • E = Estimated
  • M = Missing
  • NA = Not Available
  • ‡ = Partner data that is not subject to review by the National Climate Archives
Date modified: